| time (UTC) | temp C | wind direction | speed KPH | gust KPH | rain 1hr cm | rain 24hr cm | rain mn cm | humidity % | barometer mb |
| 20260507040841 | 10 | 127 | 0.0 | 0.0 | 0.00 | 0.00 | 0.00 | 79 | 1020.7 |
| 20260507040336 | 10 | 127 | 0.0 | 0.0 | 0.00 | 0.00 | 0.00 | 77 | 1020.8 |
| 20260507035832 | 10 | 127 | 0.0 | 0.0 | 0.00 | 0.00 | 0.00 | 76 | 1020.6 |
| 20260507035328 | 10 | 127 | 0.0 | 0.0 | 0.00 | 0.00 | 0.00 | 74 | 1020.8 |
| 20260507034826 | 10 | 127 | 0.0 | 0.0 | 0.00 | 0.00 | 0.00 | 74 | 1020.8 |
| 20260507034322 | 11 | 127 | 0.0 | 0.0 | 0.00 | 0.00 | 0.00 | 74 | 1021.0 |
| 20260507033821 | 11 | 127 | 0.0 | 0.0 | 0.00 | 0.00 | 0.00 | 74 | 1020.7 |
| 20260507033318 | 11 | 126 | 0.0 | 0.0 | 0.00 | 0.00 | 0.00 | 73 | 1021.1 |
| 20260507032815 | 11 | 127 | 0.0 | 0.0 | 0.00 | 0.00 | 0.00 | 74 | 1020.9 |
| 20260507032311 | 11 | 127 | 0.0 | 0.0 | 0.00 | 0.00 | 0.00 | 75 | 1020.8 |
| 20260507031808 | 11 | 127 | 0.0 | 0.0 | 0.00 | 0.00 | 0.00 | 73 | 1020.6 |
| 20260507031305 | 11 | 127 | 0.0 | 0.0 | 0.00 | 0.00 | 0.00 | 71 | 1020.6 |
| 20260507030801 | 11 | 127 | 0.0 | 0.0 | 0.00 | 0.00 | 0.00 | 71 | 1020.7 |
| 20260507030259 | 11 | 127 | 0.0 | 0.0 | 0.00 | 0.00 | 0.00 | 72 | 1020.6 |
| 20260507025756 | 11 | 128 | 0.0 | 0.0 | 0.00 | 0.00 | 0.00 | 75 | 1020.7 |
| 20260507025253 | 11 | 128 | 0.0 | 0.0 | 0.00 | 0.00 | 0.00 | 74 | 1020.6 |
| 20260507024751 | 11 | 127 | 0.0 | 0.0 | 0.00 | 0.00 | 0.00 | 73 | 1020.6 |
| 20260507024248 | 11 | 127 | 0.0 | 0.0 | 0.00 | 0.00 | 0.00 | 71 | 1020.7 |
| 20260507023743 | 11 | 127 | 0.0 | 0.0 | 0.00 | 0.00 | 0.00 | 69 | 1020.6 |
| 20260507023240 | 11 | 127 | 0.0 | 0.0 | 0.00 | 0.00 | 0.00 | 69 | 1020.5 |
| 20260507022738 | 11 | 127 | 0.0 | 0.0 | 0.00 | 0.00 | 0.00 | 71 | 1020.5 |
| 20260507022233 | 11 | 127 | 0.0 | 0.0 | 0.00 | 0.00 | 0.00 | 70 | 1020.6 |
| 20260507021730 | 12 | 127 | 0.0 | 0.0 | 0.00 | 0.00 | 0.00 | 70 | 1020.5 |
| 20260507021225 | 12 | 127 | 0.0 | 0.0 | 0.00 | 0.00 | 0.00 | 68 | 1020.3 |
| 20260507020724 | 12 | 127 | 0.0 | 0.0 | 0.00 | 0.00 | 0.00 | 68 | 1020.3 |
| 20260507020220 | 12 | 129 | 0.0 | 0.0 | 0.00 | 0.00 | 0.00 | 70 | 1020.3 |
| 20260507015718 | 12 | 130 | 0.0 | 0.0 | 0.00 | 0.00 | 0.00 | 69 | 1020.2 |
| 20260507015215 | 12 | 130 | 0.0 | 0.0 | 0.00 | 0.00 | 0.00 | 69 | 1020.0 |
| 20260507014712 | 12 | 130 | 0.0 | 0.0 | 0.00 | 0.00 | 0.00 | 69 | 1020.0 |
| 20260507014208 | 12 | 130 | 0.0 | 0.0 | 0.00 | 0.00 | 0.00 | 67 | 1019.9 |
| 20260507013705 | 12 | 130 | 0.0 | 0.0 | 0.00 | 0.00 | 0.00 | 67 | 1020.0 |
| 20260507013202 | 12 | 130 | 0.0 | 0.0 | 0.00 | 0.00 | 0.00 | 66 | 1019.7 |
| 20260507012659 | 12 | 130 | 0.0 | 0.0 | 0.00 | 0.00 | 0.00 | 64 | 1019.7 |
| 20260507012155 | 12 | 130 | 0.0 | 0.0 | 0.00 | 0.00 | 0.00 | 63 | 1019.7 |
| 20260507011653 | 13 | 130 | 0.0 | 0.0 | 0.00 | 0.00 | 0.00 | 59 | 1019.6 |
| 20260507011149 | 13 | 130 | 0.0 | 0.0 | 0.00 | 0.00 | 0.00 | 59 | 1019.3 |
| 20260507010644 | 13 | 130 | 0.0 | 0.0 | 0.00 | 0.00 | 0.00 | 58 | 1019.5 |
| 20260507010140 | 13 | 130 | 0.0 | 0.0 | 0.00 | 0.00 | 0.00 | 58 | 1019.7 |
| 20260507005637 | 13 | 131 | 0.0 | 0.0 | 0.00 | 0.00 | 0.00 | 57 | 1019.5 |
| 20260507005133 | 13 | 133 | 0.0 | 0.0 | 0.00 | 0.00 | 0.00 | 57 | 1019.5 |
| 20260507004630 | 13 | 117 | 0.0 | 0.0 | 0.00 | 0.00 | 0.00 | 56 | 1019.7 |
| 20260507004128 | 14 | 131 | 0.0 | 0.0 | 0.00 | 0.00 | 0.00 | 55 | 1019.5 |
| 20260507003624 | 14 | 139 | 0.0 | 0.0 | 0.00 | 0.00 | 0.00 | 54 | 1019.6 |
| 20260507003120 | 15 | 129 | 0.0 | 0.0 | 0.00 | 0.00 | 0.00 | 53 | 1019.6 |
| 20260507002616 | 15 | 117 | 0.0 | 0.0 | 0.00 | 0.00 | 0.00 | 53 | 1019.3 |
| 20260507002111 | 15 | 130 | 0.0 | 0.0 | 0.00 | 0.00 | 0.00 | 54 | 1019.5 |
| 20260507001608 | 15 | 128 | 0.0 | 0.0 | 0.00 | 0.00 | 0.00 | 53 | 1019.3 |
| 20260507001106 | 15 | 90 | 1.6 | 1.6 | 0.00 | 0.00 | 0.00 | 53 | 1019.5 |
| 20260507000602 | 15 | 117 | 0.0 | 0.0 | 0.00 | 0.00 | 0.00 | 53 | 1019.5 |
| 20260507000058 | 15 | 100 | 1.6 | 1.6 | 0.00 | 0.00 | 0.00 | 51 | 1019.6 |
| 20260506235555 | 16 | 159 | 1.6 | 1.6 | 0.00 | 0.00 | 0.00 | 50 | 1019.3 |
| 20260506235050 | 15 | 120 | 0.0 | 0.0 | 0.00 | 0.00 | 0.00 | 51 | 1019.1 |
| 20260506234548 | 15 | 94 | 1.6 | 1.6 | 0.00 | 0.00 | 0.00 | 51 | 1019.1 |
| 20260506234045 | 15 | 127 | 0.0 | 0.0 | 0.00 | 0.00 | 0.00 | 52 | 1019.3 |
| 20260506233542 | 15 | 121 | 0.0 | 0.0 | 0.00 | 0.00 | 0.00 | 52 | 1019.1 |
| 20260506233039 | 15 | 41 | 1.6 | 3.2 | 0.00 | 0.00 | 0.00 | 49 | 1019.2 |
| 20260506232535 | 15 | 359 | 1.6 | 3.2 | 0.00 | 0.00 | 0.00 | 50 | 1019.2 |
| 20260506232030 | 15 | 123 | 0.0 | 0.0 | 0.00 | 0.00 | 0.00 | 49 | 1019.0 |
| 20260506231528 | 16 | 120 | 0.0 | 1.6 | 0.00 | 0.00 | 0.00 | 49 | 1019.1 |
| 20260506231026 | 16 | 153 | 1.6 | 1.6 | 0.00 | 0.00 | 0.00 | 49 | 1018.9 |
| 20260506230522 | 15 | 86 | 3.2 | 3.2 | 0.00 | 0.00 | 0.00 | 51 | 1019.1 |
| 20260506230020 | 15 | 116 | 0.0 | 0.0 | 0.00 | 0.00 | 0.00 | 51 | 1019.1 |
| 20260506225516 | 16 | 129 | 0.0 | 0.0 | 0.00 | 0.00 | 0.00 | 50 | 1019.2 |
| 20260506225007 | 16 | 124 | 0.0 | 0.0 | 0.00 | 0.00 | 0.00 | 49 | 1019.2 |
| 20260506224504 | 16 | 115 | 0.0 | 1.6 | 0.00 | 0.00 | 0.00 | 49 | 1019.2 |
| 20260506224001 | 16 | 131 | 0.0 | 0.0 | 0.00 | 0.00 | 0.00 | 48 | 1019.0 |
| 20260506223456 | 16 | 119 | 0.0 | 1.6 | 0.00 | 0.00 | 0.00 | 51 | 1018.9 |
| 20260506222954 | 16 | 279 | 1.6 | 3.2 | 0.00 | 0.00 | 0.00 | 50 | 1018.9 |
| 20260506222450 | 16 | 119 | 0.0 | 0.0 | 0.00 | 0.00 | 0.00 | 51 | 1018.9 |
| 20260506221947 | 16 | 115 | 0.0 | 1.6 | 0.00 | 0.00 | 0.00 | 52 | 1018.8 |
| 20260506221444 | 17 | 353 | 9.7 | 11.3 | 0.00 | 0.00 | 0.00 | 47 | 1018.9 |
| 20260506220942 | 17 | 23 | 3.2 | 4.8 | 0.00 | 0.00 | 0.00 | 46 | 1018.9 |
| 20260506220437 | 16 | 121 | 0.0 | 0.0 | 0.00 | 0.00 | 0.00 | 47 | 1019.0 |
| 20260506215934 | 16 | 115 | 1.6 | 1.6 | 0.00 | 0.00 | 0.00 | 48 | 1019.0 |
| 20260506215430 | 17 | 136 | 0.0 | 0.0 | 0.00 | 0.00 | 0.00 | 46 | 1018.9 |
| 20260506214926 | 17 | 135 | 0.0 | 1.6 | 0.00 | 0.00 | 0.00 | 45 | 1018.8 |
| 20260506214423 | 17 | 141 | 0.0 | 1.6 | 0.00 | 0.00 | 0.00 | 43 | 1019.2 |
| 20260506213921 | 17 | 130 | 0.0 | 1.6 | 0.00 | 0.00 | 0.00 | 45 | 1019.0 |
| 20260506213418 | 17 | 51 | 4.8 | 8.0 | 0.00 | 0.00 | 0.00 | 45 | 1019.2 |
| 20260506212916 | 17 | 327 | 3.2 | 8.0 | 0.00 | 0.00 | 0.00 | 45 | 1019.1 |
| 20260506212411 | 17 | 102 | 1.6 | 3.2 | 0.00 | 0.00 | 0.00 | 45 | 1019.2 |
| 20260506211906 | 18 | 204 | 1.6 | 3.2 | 0.00 | 0.00 | 0.00 | 42 | 1019.6 |
| 20260506211403 | 17 | 118 | 0.0 | 0.0 | 0.00 | 0.00 | 0.00 | 47 | 1019.5 |
| 20260506210900 | 18 | 144 | 0.0 | 1.6 | 0.00 | 0.00 | 0.00 | 45 | 1019.2 |
| 20260506210356 | 17 | 181 | 0.0 | 0.0 | 0.00 | 0.00 | 0.00 | 45 | 1019.3 |
| 20260506205854 | 17 | 334 | 9.7 | 12.9 | 0.00 | 0.00 | 0.00 | 45 | 1019.6 |
| 20260506205349 | 17 | 147 | 0.0 | 0.0 | 0.00 | 0.00 | 0.00 | 47 | 1019.5 |
| 20260506204846 | 17 | 159 | 1.6 | 3.2 | 0.00 | 0.00 | 0.00 | 46 | 1019.5 |
| 20260506204344 | 17 | 114 | 3.2 | 3.2 | 0.00 | 0.00 | 0.00 | 44 | 1019.7 |
| 20260506203841 | 17 | 115 | 0.0 | 1.6 | 0.00 | 0.00 | 0.00 | 46 | 1019.7 |
| 20260506203338 | 17 | 314 | 1.6 | 3.2 | 0.00 | 0.00 | 0.00 | 45 | 1020.0 |
| 20260506202835 | 18 | 161 | 1.6 | 1.6 | 0.00 | 0.00 | 0.00 | 46 | 1019.8 |
| 20260506202332 | 18 | 118 | 1.6 | 3.2 | 0.00 | 0.00 | 0.00 | 46 | 1020.0 |
| 20260506201829 | 17 | 39 | 4.8 | 8.0 | 0.00 | 0.00 | 0.00 | 48 | 1020.0 |
| 20260506201326 | 17 | 183 | 0.0 | 1.6 | 0.00 | 0.00 | 0.00 | 51 | 1020.2 |
| 20260506200823 | 17 | 331 | 4.8 | 4.8 | 0.00 | 0.00 | 0.00 | 49 | 1020.3 |
| 20260506200319 | 17 | 114 | 1.6 | 1.6 | 0.00 | 0.00 | 0.00 | 48 | 1020.1 |
| 20260506195815 | 18 | 125 | 0.0 | 0.0 | 0.00 | 0.00 | 0.00 | 49 | 1020.2 |
| 20260506195313 | 17 | 121 | 0.0 | 1.6 | 0.00 | 0.00 | 0.00 | 48 | 1020.3 |
| 20260506194809 | 17 | 145 | 0.0 | 0.0 | 0.00 | 0.00 | 0.00 | 48 | 1020.3 |
| 20260506194306 | 17 | 125 | 1.6 | 1.6 | 0.00 | 0.00 | 0.00 | 47 | 1020.4 |
| 20260506193804 | 16 | 115 | 0.0 | 0.0 | 0.00 | 0.00 | 0.00 | 49 | 1020.3 |
| 20260506193300 | 17 | 287 | 4.8 | 8.0 | 0.00 | 0.00 | 0.00 | 47 | 1020.4 |
| 20260506192756 | 17 | 119 | 1.6 | 3.2 | 0.00 | 0.00 | 0.00 | 48 | 1020.6 |
| 20260506192253 | 16 | 130 | 0.0 | 0.0 | 0.00 | 0.00 | 0.00 | 48 | 1020.7 |
| 20260506191750 | 16 | 116 | 0.0 | 1.6 | 0.00 | 0.00 | 0.00 | 49 | 1020.3 |
| 20260506191246 | 16 | 127 | 0.0 | 0.0 | 0.00 | 0.00 | 0.00 | 50 | 1020.4 |
| 20260506190744 | 16 | 122 | 0.0 | 1.6 | 0.00 | 0.00 | 0.00 | 47 | 1020.6 |
| 20260506190240 | 17 | 102 | 1.6 | 3.2 | 0.00 | 0.00 | 0.00 | 50 | 1020.4 |
| 20260506185737 | 16 | 113 | 3.2 | 3.2 | 0.00 | 0.00 | 0.00 | 50 | 1020.5 |
| 20260506185234 | 17 | 136 | 4.8 | 4.8 | 0.00 | 0.00 | 0.00 | 47 | 1020.5 |
| 20260506184731 | 17 | 107 | 1.6 | 3.2 | 0.00 | 0.00 | 0.00 | 49 | 1020.5 |
| 20260506184228 | 16 | 118 | 0.0 | 0.0 | 0.00 | 0.00 | 0.00 | 55 | 1020.6 |
| 20260506183725 | 16 | 100 | 3.2 | 3.2 | 0.00 | 0.00 | 0.00 | 51 | 1020.6 |
| 20260506183221 | 16 | 110 | 4.8 | 4.8 | 0.00 | 0.00 | 0.00 | 54 | 1020.7 |
| 20260506182718 | 17 | 105 | 3.2 | 4.8 | 0.00 | 0.00 | 0.00 | 53 | 1020.6 |
| 20260506182215 | 17 | 121 | 0.0 | 1.6 | 0.00 | 0.00 | 0.00 | 55 | 1021.0 |
| 20260506181713 | 16 | 115 | 1.6 | 1.6 | 0.00 | 0.00 | 0.00 | 54 | 1020.9 |
| 20260506181211 | 15 | 146 | 3.2 | 3.2 | 0.00 | 0.00 | 0.00 | 54 | 1020.6 |
| 20260506180707 | 15 | 121 | 4.8 | 9.7 | 0.00 | 0.00 | 0.00 | 55 | 1020.8 |
| 20260506180203 | 15 | 41 | 6.4 | 8.0 | 0.00 | 0.00 | 0.00 | 56 | 1021.2 |
| 20260506175700 | 14 | 110 | 3.2 | 4.8 | 0.00 | 0.00 | 0.00 | 57 | 1021.1 |
| 20260506175156 | 14 | 107 | 0.0 | 1.6 | 0.00 | 0.00 | 0.00 | 58 | 1021.3 |
| 20260506174649 | 14 | 116 | 1.6 | 1.6 | 0.00 | 0.00 | 0.00 | 59 | 1021.6 |
| 20260506174145 | 14 | 133 | 1.6 | 1.6 | 0.00 | 0.00 | 0.00 | 57 | 1021.3 |
| 20260506173643 | 13 | 120 | 1.6 | 4.8 | 0.00 | 0.00 | 0.00 | 61 | 1021.0 |
| 20260506173134 | 13 | 63 | 4.8 | 8.0 | 0.00 | 0.00 | 0.00 | 59 | 1021.5 |
| 20260506172631 | 13 | 112 | 1.6 | 3.2 | 0.00 | 0.00 | 0.00 | 63 | 1021.4 |
| 20260506172127 | 13 | 116 | 0.0 | 1.6 | 0.00 | 0.00 | 0.00 | 63 | 1021.4 |
| 20260506171625 | 13 | 129 | 0.0 | 0.0 | 0.00 | 0.00 | 0.00 | 68 | 1021.6 |
| 20260506171122 | 13 | 108 | 0.0 | 1.6 | 0.00 | 0.00 | 0.00 | 66 | 1021.7 |
| 20260506170620 | 13 | 69 | 1.6 | 3.2 | 0.00 | 0.00 | 0.00 | 66 | 1021.4 |
| 20260506170117 | 13 | 105 | 0.0 | 0.0 | 0.00 | 0.00 | 0.00 | 68 | 1021.4 |
| 20260506165615 | 13 | 330 | 4.8 | 4.8 | 0.00 | 0.00 | 0.00 | 67 | 1021.3 |
| 20260506165111 | 13 | 324 | 1.6 | 8.0 | 0.00 | 0.00 | 0.00 | 68 | 1021.2 |
| 20260506164609 | 13 | 341 | 0.0 | 1.6 | 0.00 | 0.00 | 0.00 | 72 | 1021.3 |
| 20260506164106 | 12 | 99 | 3.2 | 3.2 | 0.00 | 0.00 | 0.00 | 74 | 1021.1 |
| 20260506163601 | 12 | 115 | 0.0 | 0.0 | 0.00 | 0.00 | 0.00 | 72 | 1021.0 |
| 20260506163057 | 12 | 318 | 4.8 | 9.7 | 0.00 | 0.00 | 0.00 | 74 | 1021.5 |
| 20260506162553 | 12 | 125 | 0.0 | 0.0 | 0.00 | 0.00 | 0.00 | 74 | 1021.3 |
| 20260506162045 | 11 | 110 | 1.6 | 3.2 | 0.00 | 0.00 | 0.00 | 75 | 1021.1 |
| 20260506161543 | 11 | 0 | 1.6 | 3.2 | 0.00 | 0.00 | 0.00 | 74 | 1020.9 |
| 20260506161039 | 11 | 121 | 0.0 | 0.0 | 0.00 | 0.00 | 0.00 | 75 | 1021.0 |
| 20260506160537 | 11 | 117 | 0.0 | 0.0 | 0.00 | 0.00 | 0.00 | 79 | 1021.3 |
| 20260506160034 | 11 | 310 | 6.4 | 8.0 | 0.00 | 0.00 | 0.00 | 77 | 1021.2 |
| 20260506155533 | 11 | 93 | 0.0 | 0.0 | 0.00 | 0.00 | 0.00 | 78 | 1021.1 |
| 20260506153709 | 10 | 123 | 0.0 | 0.0 | 0.00 | 0.00 | 0.00 | 83 | 1021.3 |
| 20260506153207 | 10 | 348 | 6.4 | 9.7 | 0.00 | 0.00 | 0.00 | 83 | 1021.4 |
| 20260506152703 | 10 | 120 | 0.0 | 0.0 | 0.00 | 0.00 | 0.00 | 87 | 1021.1 |
| 20260506152201 | 10 | 112 | 0.0 | 0.0 | 0.00 | 0.00 | 0.00 | 84 | 1021.2 |
| 20260506151700 | 10 | 109 | 0.0 | 0.0 | 0.00 | 0.00 | 0.00 | 87 | 1021.1 |
| 20260506151155 | 9 | 112 | 0.0 | 0.0 | 0.00 | 0.00 | 0.00 | 87 | 1021.0 |
| 20260506150652 | 9 | 90 | 0.0 | 0.0 | 0.00 | 0.00 | 0.00 | 87 | 1021.0 |
| 20260506150150 | 9 | 124 | 0.0 | 0.0 | 0.00 | 0.00 | 0.00 | 90 | 1021.3 |
| 20260506145646 | 8 | 115 | 0.0 | 0.0 | 0.00 | 0.00 | 0.00 | 87 | 1021.2 |
| 20260506145143 | 9 | 119 | 0.0 | 0.0 | 0.00 | 0.00 | 0.00 | 91 | 1021.0 |
| 20260506144641 | 8 | 11 | 0.0 | 1.6 | 0.00 | 0.00 | 0.00 | 90 | 1021.2 |
| 20260506144137 | 8 | 114 | 0.0 | 0.0 | 0.00 | 0.00 | 0.00 | 91 | 1021.4 |
| 20260506143635 | 8 | 25 | 0.0 | 0.0 | 0.00 | 0.00 | 0.00 | 91 | 1021.0 |
| 20260506143133 | 8 | 13 | 1.6 | 4.8 | 0.00 | 0.00 | 0.00 | 92 | 1020.9 |
| 20260506142631 | 8 | 123 | 0.0 | 0.0 | 0.00 | 0.00 | 0.00 | 92 | 1020.8 |
| 20260506142129 | 8 | 111 | 0.0 | 0.0 | 0.00 | 0.00 | 0.00 | 93 | 1020.5 |
| 20260506141626 | 8 | 120 | 0.0 | 0.0 | 0.00 | 0.00 | 0.00 | 93 | 1020.7 |
| 20260506141124 | 8 | 119 | 0.0 | 0.0 | 0.00 | 0.00 | 0.00 | 93 | 1021.1 |
| 20260506140622 | 8 | 93 | 0.0 | 1.6 | 0.00 | 0.00 | 0.00 | 91 | 1021.2 |
| 20260506140119 | 8 | 347 | 1.6 | 3.2 | 0.00 | 0.00 | 0.00 | 93 | 1020.9 |
| 20260506135616 | 8 | 119 | 0.0 | 0.0 | 0.00 | 0.00 | 0.00 | 93 | 1020.9 |
| 20260506135112 | 8 | 91 | 0.0 | 0.0 | 0.00 | 0.00 | 0.00 | 93 | 1020.8 |
| 20260506134609 | 8 | 125 | 0.0 | 0.0 | 0.00 | 0.00 | 0.00 | 93 | 1020.8 |
| 20260506134104 | 8 | 126 | 0.0 | 0.0 | 0.00 | 0.00 | 0.00 | 93 | 1021.0 |
| 20260506133602 | 8 | 110 | 1.6 | 1.6 | 0.00 | 0.00 | 0.00 | 94 | 1020.6 |
| 20260506133059 | 7 | 131 | 0.0 | 0.0 | 0.00 | 0.00 | 0.00 | 94 | 1020.4 |
| 20260506132556 | 7 | 131 | 0.0 | 0.0 | 0.00 | 0.00 | 0.00 | 94 | 1020.8 |
| 20260506132053 | 7 | 133 | 0.0 | 0.0 | 0.00 | 0.00 | 0.00 | 95 | 1020.5 |
| 20260506131550 | 7 | 133 | 0.0 | 0.0 | 0.00 | 0.00 | 0.00 | 95 | 1020.8 |
| 20260506131046 | 7 | 133 | 0.0 | 0.0 | 0.00 | 0.00 | 0.00 | 95 | 1020.6 |
| 20260506130543 | 7 | 133 | 0.0 | 0.0 | 0.00 | 0.00 | 0.00 | 95 | 1020.6 |
| 20260506130041 | 7 | 131 | 0.0 | 0.0 | 0.00 | 0.00 | 0.00 | 95 | 1020.7 |
| 20260506125539 | 7 | 131 | 0.0 | 0.0 | 0.00 | 0.00 | 0.00 | 95 | 1020.4 |
| 20260506125036 | 7 | 131 | 0.0 | 0.0 | 0.00 | 0.00 | 0.00 | 95 | 1020.5 |
| 20260506124534 | 7 | 131 | 0.0 | 0.0 | 0.00 | 0.00 | 0.00 | 95 | 1020.3 |
| 20260506124032 | 6 | 130 | 0.0 | 0.0 | 0.00 | 0.00 | 0.00 | 95 | 1019.9 |
| 20260506123529 | 6 | 130 | 0.0 | 0.0 | 0.00 | 0.00 | 0.00 | 95 | 1019.6 |
| 20260506123027 | 6 | 130 | 0.0 | 0.0 | 0.00 | 0.00 | 0.00 | 95 | 1019.8 |
| 20260506122523 | 6 | 131 | 0.0 | 0.0 | 0.00 | 0.00 | 0.00 | 95 | 1020.1 |
| 20260506122022 | 6 | 131 | 0.0 | 0.0 | 0.00 | 0.00 | 0.00 | 95 | 1019.9 |
| 20260506121519 | 6 | 152 | 0.0 | 0.0 | 0.00 | 0.00 | 0.00 | 95 | 1019.8 |
| 20260506121015 | 6 | 293 | 0.0 | 0.0 | 0.00 | 0.00 | 0.00 | 95 | 1019.9 |
| 20260506120514 | 6 | 123 | 0.0 | 0.0 | 0.00 | 0.00 | 0.00 | 95 | 1019.7 |
| 20260506120010 | 6 | 121 | 0.0 | 0.0 | 0.00 | 0.00 | 0.00 | 95 | 1019.8 |
| 20260506115508 | 6 | 120 | 0.0 | 0.0 | 0.00 | 0.00 | 0.00 | 95 | 1019.6 |
| 20260506115007 | 6 | 121 | 0.0 | 0.0 | 0.00 | 0.00 | 0.00 | 95 | 1019.6 |
| 20260506114503 | 6 | 121 | 0.0 | 0.0 | 0.00 | 0.00 | 0.00 | 95 | 1019.3 |
| 20260506114002 | 6 | 121 | 0.0 | 0.0 | 0.00 | 0.00 | 0.00 | 95 | 1019.5 |
| 20260506113459 | 6 | 122 | 0.0 | 0.0 | 0.00 | 0.00 | 0.00 | 95 | 1019.2 |
| 20260506112956 | 6 | 122 | 0.0 | 0.0 | 0.00 | 0.00 | 0.00 | 95 | 1018.7 |
| 20260506112453 | 6 | 122 | 0.0 | 0.0 | 0.00 | 0.00 | 0.00 | 95 | 1018.6 |
| 20260506111950 | 6 | 122 | 0.0 | 0.0 | 0.00 | 0.00 | 0.00 | 95 | 1018.6 |
| 20260506111448 | 6 | 122 | 0.0 | 0.0 | 0.00 | 0.00 | 0.00 | 95 | 1018.5 |
| 20260506110945 | 6 | 122 | 0.0 | 0.0 | 0.00 | 0.00 | 0.00 | 95 | 1018.3 |
| 20260506110443 | 6 | 124 | 0.0 | 0.0 | 0.00 | 0.00 | 0.00 | 95 | 1018.1 |
| 20260506105939 | 6 | 124 | 0.0 | 0.0 | 0.00 | 0.00 | 0.00 | 95 | 1018.3 |
| 20260506105436 | 6 | 124 | 0.0 | 0.0 | 0.00 | 0.00 | 0.00 | 95 | 1018.5 |
| 20260506104933 | 6 | 124 | 0.0 | 0.0 | 0.00 | 0.00 | 0.00 | 95 | 1018.3 |
| 20260506104431 | 6 | 122 | 0.0 | 0.0 | 0.00 | 0.00 | 0.00 | 95 | 1018.2 |
| 20260506103929 | 6 | 121 | 0.0 | 0.0 | 0.00 | 0.00 | 0.00 | 95 | 1018.3 |
| 20260506103426 | 6 | 123 | 0.0 | 0.0 | 0.00 | 0.00 | 0.00 | 95 | 1018.4 |
| 20260506102923 | 6 | 121 | 0.0 | 0.0 | 0.00 | 0.00 | 0.00 | 95 | 1018.2 |
| 20260506102421 | 5 | 121 | 0.0 | 0.0 | 0.00 | 0.00 | 0.00 | 95 | 1017.8 |
| 20260506101918 | 5 | 121 | 0.0 | 0.0 | 0.00 | 0.00 | 0.00 | 95 | 1017.9 |
| 20260506101414 | 6 | 121 | 0.0 | 0.0 | 0.00 | 0.00 | 0.00 | 95 | 1017.7 |
| 20260506100912 | 6 | 121 | 0.0 | 0.0 | 0.00 | 0.00 | 0.00 | 95 | 1018.0 |
| 20260506100410 | 6 | 120 | 0.0 | 0.0 | 0.00 | 0.00 | 0.00 | 95 | 1018.1 |
| 20260506095908 | 6 | 120 | 0.0 | 0.0 | 0.00 | 0.00 | 0.00 | 94 | 1018.1 |
| 20260506095406 | 6 | 119 | 0.0 | 0.0 | 0.00 | 0.00 | 0.00 | 94 | 1018.0 |
| 20260506094902 | 6 | 115 | 0.0 | 0.0 | 0.00 | 0.00 | 0.00 | 94 | 1017.8 |
| 20260506094401 | 6 | 120 | 0.0 | 0.0 | 0.00 | 0.00 | 0.00 | 94 | 1018.0 |
| 20260506093858 | 6 | 117 | 0.0 | 0.0 | 0.00 | 0.00 | 0.00 | 94 | 1018.3 |
| 20260506093355 | 6 | 122 | 0.0 | 0.0 | 0.00 | 0.00 | 0.00 | 94 | 1018.1 |
| 20260506092853 | 6 | 123 | 0.0 | 0.0 | 0.00 | 0.00 | 0.00 | 94 | 1017.7 |
| 20260506092351 | 6 | 123 | 0.0 | 0.0 | 0.00 | 0.00 | 0.00 | 94 | 1017.8 |
| 20260506091847 | 6 | 120 | 0.0 | 0.0 | 0.00 | 0.00 | 0.00 | 94 | 1017.9 |
| 20260506091346 | 6 | 115 | 0.0 | 0.0 | 0.00 | 0.00 | 0.00 | 94 | 1018.2 |
| 20260506090842 | 6 | 118 | 0.0 | 0.0 | 0.00 | 0.00 | 0.00 | 94 | 1017.9 |
| 20260506090340 | 6 | 117 | 0.0 | 0.0 | 0.00 | 0.00 | 0.00 | 94 | 1018.2 |
| 20260506085837 | 6 | 121 | 0.0 | 0.0 | 0.00 | 0.00 | 0.00 | 94 | 1018.3 |
| 20260506085332 | 6 | 102 | 0.0 | 0.0 | 0.00 | 0.00 | 0.00 | 94 | 1018.4 |
| 20260506084829 | 6 | 113 | 0.0 | 0.0 | 0.00 | 0.00 | 0.00 | 93 | 1018.7 |
| 20260506084326 | 6 | 106 | 0.0 | 0.0 | 0.00 | 0.00 | 0.00 | 93 | 1018.7 |
| 20260506083822 | 6 | 120 | 0.0 | 0.0 | 0.00 | 0.00 | 0.00 | 93 | 1018.6 |
| 20260506083320 | 6 | 83 | 0.0 | 0.0 | 0.00 | 0.00 | 0.00 | 93 | 1018.8 |
| 20260506082818 | 6 | 89 | 0.0 | 1.6 | 0.00 | 0.00 | 0.00 | 93 | 1018.7 |
| 20260506082314 | 6 | 123 | 0.0 | 0.0 | 0.00 | 0.00 | 0.00 | 93 | 1018.4 |
| 20260506081810 | 6 | 111 | 0.0 | 0.0 | 0.00 | 0.00 | 0.00 | 93 | 1018.8 |
| 20260506081308 | 6 | 123 | 0.0 | 0.0 | 0.00 | 0.00 | 0.00 | 93 | 1018.8 |
| 20260506080806 | 6 | 119 | 0.0 | 0.0 | 0.00 | 0.00 | 0.00 | 93 | 1018.2 |
| 20260506080302 | 6 | 123 | 0.0 | 0.0 | 0.00 | 0.00 | 0.00 | 93 | 1018.1 |
| 20260506073246 | 6 | 115 | 0.0 | 0.0 | 0.00 | 0.00 | 0.00 | 93 | 1017.7 |
| 20260506072743 | 6 | 103 | 1.6 | 1.6 | 0.00 | 0.00 | 0.00 | 93 | 1017.3 |
| 20260506072241 | 6 | 135 | 0.0 | 1.6 | 0.00 | 0.00 | 0.00 | 93 | 1016.7 |
| 20260506071738 | 6 | 116 | 0.0 | 1.6 | 0.00 | 0.00 | 0.00 | 93 | 1016.8 |
| 20260506071236 | 6 | 122 | 1.6 | 1.6 | 0.00 | 0.00 | 0.00 | 93 | 1016.8 |
| 20260506070733 | 6 | 110 | 1.6 | 1.6 | 0.00 | 0.00 | 0.00 | 92 | 1016.7 |
| 20260506070230 | 6 | 118 | 0.0 | 0.0 | 0.00 | 0.00 | 0.00 | 92 | 1016.4 |
| 20260506062207 | 7 | 116 | 0.0 | 0.0 | 0.00 | 0.00 | 0.00 | 90 | 1017.4 |
| 20260506061702 | 7 | 120 | 0.0 | 1.6 | 0.00 | 0.00 | 0.00 | 90 | 1017.5 |
| 20260506061200 | 7 | 86 | 4.8 | 4.8 | 0.00 | 0.00 | 0.00 | 90 | 1017.1 |
| 20260506060659 | 7 | 125 | 0.0 | 0.0 | 0.00 | 0.00 | 0.00 | 89 | 1016.8 |
| 20260506060155 | 7 | 89 | 1.6 | 3.2 | 0.00 | 0.00 | 0.00 | 89 | 1016.2 |
| 20260506051127 | 10 | 112 | 0.0 | 1.6 | 0.00 | 0.00 | 0.00 | 73 | 1015.7 |
| 20260506050625 | 10 | 119 | 1.6 | 3.2 | 0.00 | 0.00 | 0.00 | 72 | 1015.4 |
| 20260506050122 | 10 | 119 | 0.0 | 0.0 | 0.00 | 0.00 | 0.00 | 72 | 1016.2 |
| 20260506045115 | 10 | 115 | 0.0 | 0.0 | 0.00 | 0.00 | 0.00 | 75 | 1016.1 |
| 20260506044613 | 10 | 133 | 1.6 | 3.2 | 0.00 | 0.00 | 0.00 | 75 | 1016.0 |
| 20260506044110 | 10 | 123 | 0.0 | 0.0 | 0.00 | 0.00 | 0.00 | 78 | 1016.0 |
| 20260506043607 | 10 | 113 | 0.0 | 0.0 | 0.00 | 0.00 | 0.00 | 79 | 1016.1 |
| 20260506043105 | 10 | 117 | 0.0 | 0.0 | 0.00 | 0.00 | 0.00 | 80 | 1016.0 |
| 20260506042604 | 10 | 90 | 0.0 | 0.0 | 0.00 | 0.00 | 0.00 | 80 | 1015.8 |
| 20260506042102 | 10 | 113 | 0.0 | 0.0 | 0.00 | 0.00 | 0.00 | 81 | 1015.7 |
| 20260506041600 | 10 | 122 | 0.0 | 0.0 | 0.00 | 0.00 | 0.00 | 81 | 1015.9 |